This is the latest recevied weather packets stored in our database for station/object K1RFS. If no packets are shown the sender has not sent any weather packets the latest 10 day(s).
| Time | Temp. | Humidity | Pressure | Rain* | Wind** | Luminosity | Snow |
|---|---|---|---|---|---|---|---|
| 1787858777 | 35.56° C | 21% | 1005.3 hPa | 0 mm | - | 591 W/m² | - |
| 1787858473 | 35.56° C | 21% | 1005.4 hPa | 0 mm | - | 597 W/m² | - |
| 1787858172 | 35.56° C | 22% | 1005.6 hPa | 0 mm | - | 495 W/m² | - |
| 1787857868 | 35.56° C | 22% | 1005.5 hPa | 0 mm | - | 627 W/m² | - |
| 1787857564 | 35.56° C | 21% | 1005.6 hPa | 0 mm | - | 631 W/m² | - |
| 1787857262 | 35.56° C | 21% | 1005.8 hPa | 0 mm | - | 625 W/m² | - |
| 1787856962 | 34.44° C | 22% | 1005.8 hPa | 0 mm | - | 626 W/m² | - |
| 1787856656 | 34.44° C | 23% | 1006 hPa | 0 mm | - | 627 W/m² | - |
| 1787856352 | 33.89° C | 23% | 1005.8 hPa | 0 mm | - | 617 W/m² | - |
| 1787856047 | 33.89° C | 24% | 1006.2 hPa | 0 mm | - | 593 W/m² | - |
| 1787855746 | 33.33° C | 24% | 1006.2 hPa | 0 mm | - | 584 W/m² | - |
| 1787855442 | 33.33° C | 25% | 1006.3 hPa | 0 mm | - | 576 W/m² | - |
| 1787855137 | 32.78° C | 26% | 1006.3 hPa | 0 mm | - | 570 W/m² | - |
| 1787854832 | 32.22° C | 26% | 1006.2 hPa | 0 mm | - | 566 W/m² | - |
| 1787854532 | 32.22° C | 26% | 1006.5 hPa | 0 mm | - | 560 W/m² | - |
| 1787854227 | 32.22° C | 26% | 1006.4 hPa | 0 mm | - | 554 W/m² | - |
| 1787853921 | 32.22° C | 26% | 1006.6 hPa | 0 mm | - | 548 W/m² | - |
| 1787853621 | 31.67° C | 26% | 1006.5 hPa | 0 mm | - | 541 W/m² | - |
| 1787853320 | 31.67° C | 27% | 1006.6 hPa | 0 mm | - | 531 W/m² | - |
| 1787853015 | 31.67° C | 28% | 1006.5 hPa | 0 mm | - | 45 W/m² | - |
| 1787852715 | 31.67° C | 27% | 1006.5 hPa | 0 mm | - | 43 W/m² | - |
| 1787852415 | 31.11° C | 27% | 1006.6 hPa | 0 mm | - | 41 W/m² | - |
| 1787852115 | 31.11° C | 28% | 1006.8 hPa | 0 mm | - | 40 W/m² | - |
| 1787851810 | 30.56° C | 28% | 1006.6 hPa | 0 mm | - | 39 W/m² | - |
| 1787851503 | 31.11° C | 28% | 1006.8 hPa | 0 mm | - | 39 W/m² | - |
* Rain latest hour (hover to see other rain measurements)
** Current wind speed in m/s (hover to see current wind gust speed)